Bangor, ME

2:59 PM EDT on September 30, 2016 (GMT -0400)
Bangor International

Weather History for KBGR - May, 2013

Change the Weather History Date:

Tuesday, May 14, 2013

  Actual Average Record
Temperature  
Mean Temperature 46 °F 53 °F  
Max Temperature 55 °F 65 °F 87 °F (1961)
Min Temperature 37 °F 42 °F 28 °F (1929)
Degree Days  
Heating Degree Days 19 12  
Month to date heating degree days 158 198  
Since 1 July heating degree days 7253 7596  
Cooling Degree Days 0 0  
Month to date cooling degree days 0 0  
Year to date cooling degree days 0 0  
Moisture  
Dew Point 30 °F    
Average Humidity 59    
Maximum Humidity 79    
Minimum Humidity 38    
Precipitation  
Precipitation T in 0.11 in 0.75 in (2002)
Month to date precipitation 0.83 1.57  
Year to date precipitation 7.56 13.98  
Snow  
Snow 0.00 in 0.00 in 0.00 in (2002)
Month to date snowfall 0.0 0.1  
Since 1 July snowfall 74.3 66.2  
Snow Depth 0.00 in    
Sea Level Pressure  
Sea Level Pressure 29.98 in    
Wind  
Wind Speed 5 mph (NW)    
Max Wind Speed 16 mph    
Max Gust Speed 20 mph    
Visibility 10 miles    
Events      
T = Trace of Precipitation, MM = Missing Value Source: NWS Daily Summary

Daily Weather History Graph

Daily Weather History Graph

Search for Another Location

Airport or City:

Trip Planner

Search our weather history database for the weather conditions in past years. The results will help you decide how hot, cold, wet, or windy it might be!

Date:

Astronomy

May. 14, 2013 Rise Set
Actual Time 5:07 AM EDT 7:56 PM EDT
Civil Twilight 4:33 AM EDT 8:30 PM EDT
Nautical Twilight 3:50 AM EDT 9:13 PM EDT
Astronomical Twilight 3:00 AM EDT 10:04 PM EDT
Moon 8:44 AM EDT (5/14) 11:39 PM EDT (5/14)
Length of Visible Light 15h 56m
Length of Day
14h 48m
Waxing Crescent, 19% of the Moon is Illuminated
May 14
Waxing Crescent
May 18
First Quarter
May 25
Full
May 31
Last Quarter
Jun 8
New

Hourly Weather History & Observations

Time (EDT) Temp. Windchill Dew Point Humidity Pressure Visibility Wind Dir Wind Speed Gust Speed Precip Events Conditions
12:53 AM 41.0 °F - 32.0 °F 70% 30.00 in 10.0 mi Calm Calm - N/A   Mostly Cloudy
1:53 AM 39.9 °F - 33.1 °F 77% 29.99 in 10.0 mi Calm Calm - N/A   Mostly Cloudy
2:53 AM 41.0 °F 38.0 °F 30.9 °F 67% 29.99 in 10.0 mi NW 4.6 mph - N/A   Overcast
3:53 AM 39.9 °F 36.7 °F 30.0 °F 68% 30.00 in 10.0 mi NW 4.6 mph - N/A   Mostly Cloudy
4:53 AM 39.9 °F 37.8 °F 30.0 °F 68% 30.00 in 10.0 mi NW 3.5 mph - N/A   Mostly Cloudy
5:53 AM 39.0 °F 36.8 °F 30.9 °F 73% 30.00 in 10.0 mi NNW 3.5 mph - N/A   Mostly Cloudy
6:53 AM 42.1 °F 38.4 °F 30.9 °F 65% 30.01 in 10.0 mi NNW 5.8 mph - N/A   Mostly Cloudy
7:53 AM 45.0 °F 39.7 °F 30.9 °F 58% 30.01 in 10.0 mi NW 10.4 mph - N/A   Scattered Clouds
8:53 AM 46.9 °F - 28.0 °F 48% 30.01 in 10.0 mi NNW 12.7 mph - N/A   Scattered Clouds
9:53 AM 48.9 °F - 28.0 °F 44% 29.99 in 10.0 mi Variable 4.6 mph - N/A   Scattered Clouds
10:53 AM 50.0 °F - 28.9 °F 44% 29.96 in 10.0 mi Calm Calm - N/A   Partly Cloudy
11:53 AM 51.1 °F - 28.0 °F 41% 29.96 in 10.0 mi NNW 5.8 mph - N/A   Mostly Cloudy
12:53 PM 53.1 °F - 28.0 °F 38% 29.96 in 10.0 mi NNW 6.9 mph - N/A   Mostly Cloudy
1:53 PM 53.1 °F - 28.9 °F 40% 29.96 in 10.0 mi NW 6.9 mph - N/A   Mostly Cloudy
2:53 PM 52.0 °F - 30.0 °F 43% 29.95 in 10.0 mi NNW 12.7 mph - N/A   Mostly Cloudy
3:53 PM 51.1 °F - 30.0 °F 44% 29.94 in 10.0 mi NW 12.7 mph - N/A   Mostly Cloudy
4:53 PM 52.0 °F - 30.0 °F 43% 29.95 in 10.0 mi NNW 9.2 mph - N/A   Mostly Cloudy
5:53 PM 51.1 °F - 28.9 °F 43% 29.94 in 10.0 mi NNW 9.2 mph - N/A   Mostly Cloudy
6:53 PM 51.1 °F - 28.9 °F 43% 29.94 in 10.0 mi NNW 9.2 mph - N/A   Mostly Cloudy
7:53 PM 48.0 °F - 32.0 °F 54% 29.96 in 10.0 mi NW 3.5 mph - 0.00 in   Mostly Cloudy
8:53 PM 46.9 °F - 30.9 °F 54% 29.97 in 10.0 mi NW 6.9 mph - N/A   Mostly Cloudy
9:53 PM 45.0 °F 42.6 °F 30.9 °F 58% 29.98 in 10.0 mi NW 4.6 mph - N/A   Partly Cloudy
10:53 PM 43.0 °F 40.3 °F 30.0 °F 60% 29.98 in 10.0 mi NW 4.6 mph - N/A   Partly Cloudy
11:53 PM 43.0 °F 39.5 °F 28.9 °F 58% 29.98 in 10.0 mi WNW 5.8 mph - 0.00 in   Clear